Location: Lawrence Hall of Science
(37.8785°N, 122.2415°W)
Time: 05:09:29
(UTC-07:00)

ARGOS - Visible Passes

Search period start: 30 June 2016 00:00
Search period end: 10 July 2016 00:00
Orbit: 820 x 835 km, 98.7° (Epoch: 29 June)

Date Brightness Start Highest point End Pass type
(mag) Time Alt. Az. Time Alt. Az. Time Alt. Az.
30 Jun 4.1 21:45:02 16° ESE 21:48:37 32° ENE 21:53:22 10° N visible
30 Jun 4.6 23:26:33 22° SW 23:28:48 30° W 23:33:29 10° NW visible
01 Jul 4.6 21:26:16 10° ESE 21:30:15 23° ENE 21:34:21 10° NNE visible
01 Jul 4.0 23:07:47 28° SSW 23:10:10 44° W 23:15:19 10° NNW visible
02 Jul 5.0 21:08:52 10° E 21:11:57 16° ENE 21:15:01 10° NNE visible
02 Jul 3.3 22:49:02 31° S 22:51:35 67° WSW 22:56:57 10° NNW visible
03 Jul 3.1 22:30:16 30° SSE 22:33:03 83° ENE 22:38:28 10° NNW visible
04 Jul 5.6 00:12:49 10° W 00:13:52 11° W 00:14:56 10° WNW visible
04 Jul 3.4 22:11:31 25° SE 22:14:34 56° ENE 22:19:50 10° N visible
04 Jul 5.2 23:53:02 14° WSW 23:55:07 17° W 23:58:30 10° NW visible
05 Jul 3.9 21:52:45 19° SE 21:56:08 38° ENE 22:01:04 10° N visible
05 Jul 4.8 23:34:17 20° SW 23:36:25 25° W 23:40:48 10° NW visible
06 Jul 4.4 21:34:01 13° ESE 21:37:45 26° ENE 21:42:08 10° NNE visible
06 Jul 4.2 23:15:32 26° SW 23:17:46 37° W 23:22:44 10° NNW visible
07 Jul 4.8 21:15:52 10° ESE 21:19:24 18° ENE 21:22:57 10° NNE visible
07 Jul 3.6 22:56:47 31° SSW 22:59:10 56° W 23:04:28 10° NNW visible
08 Jul 5.1 20:59:02 10° E 21:01:08 12° ENE 21:03:13 10° NE visible
08 Jul 3.1 22:38:02 32° S 22:40:37 84° WSW 22:46:01 10° NNW visible
09 Jul 3.2 22:19:18 28° SSE 22:22:06 66° ENE 22:27:26 10° N visible
